Showing default

NAVSPASUR ROD 1, 1515

Orbit data source: Space-Track

NAVSPASUR ROD 1, 1515 is a payload satellite owned by NRL (US) in LEO that was launched on Fri, 13 Aug 1965 UTC via a THOR ABLESTAR launch vehicle from the Air Force Western Test Range (AFWTR). Payload-class satellites include a variety of spacecraft equipped with specific instruments for various scientific and technological missions. These include communications satellites like Starlink; space stations such as the ISS; scientific satellites like the Hubble; Earth observation satellites from companies like Planet Labs, Umbra, and HawkEye 360; GPS; miniature CubeSats for education and research; and military/defense satellites.

Loading next visibility...
Identifier
1515, 1965-065G
Orbit
LEO
Country
Flag of USUS
Related business
Manufacturer
NRL
Mission
Spacecraft
Bus & Motor
LONG ROD, Unknown motor
Mass
3 kg wet, 3 kg dry
Launch date (UTC)
1965-08-13 (60 years ago)
Launch vehicle
THOR ABLESTAR
Launch site
Air Force Western Test Range (AFWTR)
Object type
Payload
Rocket body
Debris
Shape & HBR
Unknown
Radar Cross Section
Small (<0.1 m²)

Expand to show TLE details & history
Last TLE update: 20 hours ago

TLE from 20 hours ago
0 NAVSPASUR ROD 1
1 01515U 65065G   25349.08285659  .00000456  00000-0  68480-3 0  9994
2 01515  90.0105 213.9117 0059507 127.4136  26.2870 13.50826216955461
Epoch: 2025-12-15T01:59Z
TLE epoch observation values (Epoch: 2025-12-15T01:59:18.809Z)
Latitude
26.02638°
Longitude
-79.89809°
Altitude
1,032.747 km
Speed
7.357 km/s
True Right ascension
02h 15m 40s
True Declination
25° 53' 46"
Sunlit
Object was in full shadow at epoch
Visualization orbit readout
Latitude
Unknown
Longitude
Unknown
Altitude
Unknown
Speed
Unknown
Apparent Right ascension
Unknown
Apparent Declination
Unknown
Sunlit
N/A
Visualization observer readout
Local Sidereal Time
21:00:03
Azimuth
Unknown
Elevation
Unknown
Doppler factor
Unknown
Orbital elements
Apogee altitude
1,110.568 km
Perigee altitude
1,021.969 km
Semi-major axis
7,444.406 km
Eccentricity
0.00595
Inclination
90.0105°
RAAN
213.9117°
Arg. of periapsis
127.4136°
True anomaly
26.59102°
Mean anomaly
26.287°
Eccentric anomaly
26.43881°
Mean motion
3.37908 °/min
Orbital period
106.54 mins
BSTAR
0.0006848
Loading maneuver chart data...
Computing Atmospheric mass density...
Loading historical data...
Loading historical data...
Loading historical data...
Loading historical data...
Loading historical data...
Loading historical data...
Loading historical data...

Documentation

Showing up to 5 results
|